Latest Coastal Weather Observations for Northern Endeavour (near 10.5S 126E)

IDD60701

Issued at 1:32 am CST Thursday 1 September 2016 (issued every 10 minutes, with the page automatically refreshed every 10 minutes)

About coastal observations | Map of coastal stations | Coastal observations for NT | Marine services | Other Formats
Station Details ID: 200212 Name: NORTHERN ENDEAVOUR Lat: -10.61 Lon: 125.98 Height: 16.0 m
Data from the previous 72 hours. | See also: Recent months for locations in Northern Territory
Date/Time
CST
Temp
°C
Wind Pressure Rain since
9am
mm
Weather Cloud Vis
km
Sea
Height
m
Swell
Dir  Spd
kts
Gust
kts
hPa Trend Height
m
Period
s
Dir
01/01:30am 26.9 ENE 6 9 1013.3 - - - Partly cloudy 10 - - - -
01/01:20am 26.8 ENE 5 7 1013.4 - - - Partly cloudy 10 - - - -
01/01:10am 26.7 ENE 6 5 1013.5 - - - Partly cloudy 10 - - - -
01/01:00am 26.9 ENE 6 7 1013.7 - - - Partly cloudy 10 - - - -
01/12:50am 26.8 ENE 5 8 1013.8 - - - Partly cloudy 10 - - - -
01/12:40am 26.9 ENE 5 7 1013.9 - - - Partly cloudy 10 - - - -
01/12:30am 27.0 ENE 5 5 1013.9 - - - Partly cloudy 10 - - - -
01/12:20am 27.1 E 4 6 1014.0 - - - Partly cloudy 10 - - - -
01/12:10am 26.9 E 5 6 1014.1 - - - - 10 - - - -
01/12:00am 27.0 E 6 7 1014.1 - - - - 10 - - - -
 
Date/Time
CST
Temp
°C
Wind Pressure Rain since
9am
mm
Weather Cloud Vis
km
Sea
Height
m
Swell
Dir  Spd
kts
Gust
kts
hPa Trend Height
m
Period
s
Dir
31/11:50pm 27.0 E 6 7 1014.1 - - - - 10 - - - -
31/11:40pm 27.0 E 6 7 1014.2 - - - Partly cloudy 10 - - - -
31/11:30pm 27.0 E 5 7 1014.2 - - - Partly cloudy 10 - - - -
31/11:20pm 27.1 E 4 6 1014.2 - - - Partly cloudy 10 - - - -
31/11:10pm 27.2 E 4 6 1014.2 - - - Partly cloudy 10 - - - -
31/11:00pm 27.2 E 7 7 1014.2 - - - - 10 - - - -
31/10:50pm 27.1 E 6 8 1014.3 - - - - 10 - - - -
31/10:40pm 27.0 E 7 7 1014.4 - - - - 10 - - - -
31/10:30pm 27.0 E 7 7 1014.4 - - - - 10 - - - -
31/10:20pm 27.1 E 7 6 1014.4 - - - - 10 - - - -
31/10:10pm 27.1 E 6 7 1014.4 - - - - 10 - - - -
31/10:00pm 27.1 E 7 8 1014.3 - - - - 10 - - - -
31/09:50pm 27.1 E 6 7 1014.3 - - - - 10 - - - -
31/09:40pm 27.1 E 6 6 1014.2 - - - - 10 - - - -
31/09:30pm 27.1 E 7 7 1014.2 - - - - 10 - - - -
31/09:20pm 27.2 E 6 7 1014.0 - - - - 10 - - - -
31/09:10pm 27.5 E 7 8 1013.9 - - - - 10 - - - -
31/09:00pm 27.4 E 7 10 1013.7 - - - - 10 - - - -
31/08:50pm 27.5 E 7 8 1013.7 - - - - 10 - - - -
31/08:40pm 27.5 E 8 8 1013.7 - - - - 10 - - - -
31/08:30pm 27.7 E 9 10 1013.6 - - - - 10 - - - -
31/08:20pm 27.6 E 8 12 1013.5 - - - - 10 - - - -
31/08:10pm 27.8 E 8 13 1013.5 - - - - 10 - - - -
31/08:00pm 27.6 E 8 8 1013.5 - - - - 10 - - - -
31/07:50pm 27.8 E 9 10 1013.4 - - - - 10 - - - -
31/07:40pm 27.8 E 8 9 1013.2 - - - - 10 - - - -
31/07:30pm 27.7 E 9 9 1013.0 - - - - 10 - - - -
31/07:20pm 27.8 E 9 10 1013.0 - - - - 10 - - - -
31/07:10pm 28.3 E 9 10 1013.0 - - - - 10 - - - -
31/07:00pm 28.7 E 10 10 1013.0 - - - Partly cloudy 10 - - - -
31/06:50pm 29.6 E 10 12 1012.9 - - - Partly cloudy 10 - - - -
31/06:40pm 29.3 E 9 10 1012.9 - - - Partly cloudy 10 - - - -
31/06:30pm 29.7 E 9 10 1012.8 - - - - 10 - - - -
31/06:20pm 30.7 E 9 10 1012.9 - - - - 10 - - - -
31/06:10pm 31.5 E 9 11 1012.8 - - - - 10 - - - -
31/06:00pm 31.5 E 9 11 1012.7 - - - - 10 - - - -
31/05:50pm 31.3 E 9 10 1012.7 - - - - 10 - - - -
31/05:40pm 31.6 E 9 12 1012.7 - - - - 10 - - - -
31/05:30pm 31.1 E 9 9 1012.7 - - - - 10 - - - -
31/05:20pm 30.9 E 9 11 1012.7 - - - Partly cloudy 10 - - - -
31/05:10pm 30.8 E 9 9 1012.6 - - - Partly cloudy 10 - - - -
31/05:00pm 29.8 E 9 9 1012.7 - - - Partly cloudy 10 - - - -
31/04:50pm 29.2 E 8 10 1012.7 - - - - 10 - - - -
31/04:40pm 30.0 E 9 9 1012.7 - - - - 10 - - - -
31/04:30pm 29.7 E 9 9 1012.7 - - - - 10 - - - -
31/04:20pm 29.0 E 10 10 1012.6 - - - - 10 - - - -
31/04:10pm 29.1 E 10 11 1012.6 - - - - 10 - - - -
31/04:00pm 28.6 E 10 12 1012.6 - - - - 10 - - - -
31/03:50pm 28.5 E 7 13 1012.7 - - - - 10 - - - -
31/03:40pm 28.5 E 9 10 1012.7 - - - - 10 - - - -
31/03:30pm 28.5 E 9 9 1012.7 - - - - 10 - - - -
31/03:20pm 28.3 E 8 11 1012.8 - - - - 10 - - - -
31/03:10pm 28.0 E 8 12 1012.9 - - - - 10 - - - -
31/03:00pm 28.0 E 7 11 1012.9 - - - - 10 - - - -
31/02:50pm 28.0 ENE 11 11 1012.9 - - - - 10 - - - -
31/02:40pm 27.6 ENE 12 13 1013.1 - - - - 10 - - - -
31/02:30pm 27.6 E 13 15 1013.2 - - - - 10 - - - -
31/02:20pm 27.7 E 13 14 1013.3 - - - - 10 - - - -
31/02:10pm 27.5 E 13 14 1013.4 - - - - 10 - - - -
31/02:00pm 27.6 E 13 15 1013.6 - - - - 10 - - - -
31/01:50pm 27.6 E 12 15 1013.8 - - - Partly cloudy 10 - - - -
31/01:40pm 27.0 E 9 12 1014.0 - - - Partly cloudy 10 - - - -
31/01:30pm 26.9 E 13 14 1014.0 - - - Partly cloudy 10 - - - -
31/01:20pm 27.5 E 11 15 1014.2 - - - Partly cloudy 10 - - - -
31/01:10pm 28.3 E 8 11 1014.3 - - - Partly cloudy 10 - - - -
31/01:00pm 29.3 E 10 11 1014.5 - - - Partly cloudy 10 - - - -
31/12:50pm 30.4 E 10 11 1014.5 - - - Partly cloudy 10 - - - -
31/12:40pm 30.6 E 11 11 1014.7 - - - Partly cloudy 10 - - - -
31/12:30pm 31.1 E 11 13 1014.8 - - - Partly cloudy 10 - - - -
31/12:20pm 31.3 E 10 12 1015.0 - - - - 10 - - - -
31/12:10pm 31.1 E 10 10 1015.0 - - - Partly cloudy 10 - - - -
31/12:00pm 30.8 E 11 13 1015.2 - - - - 10 - - - -
31/11:50am 30.9 E 10 12 1015.2 - - - - 10 - - - -
31/11:40am 30.7 E 10 12 1015.3 - - - - 10 - - - -
31/11:30am 30.5 E 10 11 1015.4 - - - - 10 - - - -
31/11:20am 30.5 E 11 11 1015.5 - - - Partly cloudy 10 - - - -
31/11:10am 30.4 E 12 13 1015.7 - - - Partly cloudy 10 - - - -
31/11:00am 30.4 E 12 13 1015.8 - - - Partly cloudy 10 - - - -
31/10:50am 29.9 E 12 14 1015.8 - - - Partly cloudy 10 - - - -
31/10:40am 29.9 E 12 14 1015.9 - - - Partly cloudy 10 - - - -
31/10:30am 29.9 E 12 13 1016.0 - - - Partly cloudy 10 - - - -
31/10:20am 29.6 E 11 13 1015.9 - - - - 10 - - - -
31/10:10am 29.7 E 11 13 1015.9 - - - - 10 - - - -
31/10:00am 29.6 E 12 13 1015.9 - - - - 10 - - - -
31/09:50am 29.3 E 11 13 1015.8 - - - - 10 - - - -
31/09:40am 29.2 E 12 14 1015.7 - - - Partly cloudy 10 - - - -
31/09:30am 31.2 E 11 13 1015.6 - - - Partly cloudy 10 - - - -
31/09:20am 32.0 E 11 15 1015.4 - - - Partly cloudy 10 - - - -
31/09:10am 28.4 E 11 13 1015.5 - - - - 10 - - - -
31/09:00am 28.8 E 10 13 1015.3 - - - - 10 - - - -
31/08:50am 28.8 E 11 13 1015.2 - - - - 10 - - - -
31/08:40am 28.6 E 11 13 1015.1 - - - - 10 - - - -
31/08:30am 28.4 E 12 13 1015.1 - - - - 10 - - - -
31/08:20am 28.3 E 12 13 1015.0 - - - - 8 - - - -
31/08:10am 28.1 E 12 12 1014.8 - - - - 10 - - - -
31/08:00am 27.8 E 12 14 1014.7 - - - - 10 - - - -
31/07:50am 27.5 E 11 14 1014.5 - - - Partly cloudy 10 - - - -
31/07:40am 27.4 E 12 14 1014.4 - - - Partly cloudy 10 - - - -
31/07:30am 27.4 E 12 14 1014.3 - - - Partly cloudy 10 - - - -
31/07:20am 27.4 E 11 15 1014.2 - - - Partly cloudy 10 - - - -
31/07:10am 27.3 E 11 12 1014.2 - - - Partly cloudy 10 - - - -
31/07:00am 27.3 E 12 14 1014.1 - - - Partly cloudy 10 - - - -
31/06:50am 27.3 E 11 14 1014.0 - - - - 10 - - - -
31/06:40am 27.2 E 11 12 1014.0 - - - Partly cloudy 10 - - - -
31/06:30am 27.1 E 12 13 1013.9 - - - - 10 - - - -
31/06:20am 27.2 E 12 13 1013.7 - - - Partly cloudy 10 - - - -
31/06:10am 27.2 E 12 13 1013.6 - - - - 10 - - - -
31/06:00am 27.0 E 11 13 1013.5 - - - - 10 - - - -
31/05:50am 26.8 ENE 11 11 1013.4 - - - Partly cloudy 10 - - - -
31/05:40am 26.8 E 12 13 1013.4 - - - Partly cloudy 10 - - - -
31/05:30am 26.9 E 11 13 1013.3 - - - Partly cloudy 10 - - - -
31/05:20am 26.8 E 11 12 1013.1 - - - Partly cloudy 10 - - - -
31/05:10am 26.8 E 11 13 1013.1 - - - Partly cloudy 10 - - - -
31/05:00am 26.9 ENE 10 11 1013.1 - - - Partly cloudy 10 - - - -
31/04:50am 26.8 E 11 12 1013.0 - - - Partly cloudy 10 - - - -
31/04:40am 26.8 E 11 11 1013.0 - - - Partly cloudy 10 - - - -
31/04:30am 26.9 ENE 11 12 1012.9 - - - Partly cloudy 10 - - - -
31/04:20am 26.8 E 10 12 1012.9 - - - Partly cloudy 10 - - - -
31/04:10am 26.9 ENE 11 12 1013.0 - - - Partly cloudy 10 - - - -
31/04:00am 26.8 ENE 9 11 1013.0 - - - - 10 - - - -
31/03:50am 26.8 ENE 9 12 1013.0 - - - - 10 - - - -
31/03:40am 26.8 ENE 11 14 1013.0 - - - Partly cloudy 10 - - - -
31/03:30am 26.8 ENE 10 13 1012.9 - - - Partly cloudy 10 - - - -
31/03:20am 26.8 ENE 9 15 1013.1 - - - - 10 - - - -
31/03:10am 26.8 ENE 8 12 1013.1 - - - - 10 - - - -
31/03:00am 26.8 ENE 9 11 1013.2 - - - - 10 - - - -
31/02:50am 26.8 ENE 10 13 1013.2 - - - - 10 - - - -
31/02:40am 26.8 ENE 9 12 1013.2 - - - - 10 - - - -
31/02:30am 26.8 ENE 9 14 1013.2 - - - - 10 - - - -
31/02:20am 26.8 ENE 8 13 1013.4 - - - - 10 - - - -
31/02:10am 26.8 ENE 11 13 1013.4 - - - Partly cloudy 10 - - - -
31/02:00am 26.9 ENE 13 16 1013.5 - - - Partly cloudy 10 - - - -
31/01:50am 26.9 ENE 13 13 1013.7 - - - Partly cloudy 10 - - - -
31/01:40am 26.9 NE 13 15 1013.8 - - - Partly cloudy 10 - - - -
31/01:30am 26.9 ENE 12 14 1013.8 - - - Partly cloudy 10 - - - -
31/01:20am 26.9 ENE 13 15 1013.9 - - - - 10 - - - -
31/01:10am 27.0 ENE 11 15 1013.9 - - - - 10 - - - -
31/01:00am 27.0 ENE 12 13 1014.0 - - - - 10 - - - -
31/12:50am 27.1 ENE 13 15 1014.1 - - - Partly cloudy 10 - - - -
31/12:40am 27.0 ENE 13 14 1014.1 - - - Partly cloudy 10 - - - -
31/12:30am 27.1 ENE 12 15 1014.2 - - - Partly cloudy 10 - - - -
31/12:20am 27.0 ENE 11 13 1014.3 - - - Partly cloudy 10 - - - -
31/12:10am 27.1 ENE 12 13 1014.4 - - - - 10 - - - -
31/12:00am 27.1 ENE 10 14 1014.4 - - - - 10 - - - -
 
Date/Time
CST
Temp
°C
Wind Pressure Rain since
9am
mm
Weather Cloud Vis
km
Sea
Height
m
Swell
Dir  Spd
kts
Gust
kts
hPa Trend Height
m
Period
s
Dir
30/11:50pm 27.1 ENE 11 14 1014.5 - - - - 10 - - - -
30/11:40pm 27.1 ENE 12 13 1014.5 - - - Partly cloudy 10 - - - -
30/11:30pm 27.1 E 12 13 1014.5 - - - Partly cloudy 10 - - - -
30/11:20pm 27.0 E 11 13 1014.5 - - - Partly cloudy 10 - - - -
30/11:10pm 27.1 ENE 11 11 1014.6 - - - Partly cloudy 10 - - - -
30/11:00pm 27.0 ENE 11 13 1014.5 - - - Partly cloudy 10 - - - -
30/10:50pm 27.1 ENE 12 11 1014.4 - - - - 10 - - - -
30/10:40pm 27.0 ENE 13 14 1014.3 - - - - 10 - - - -
30/10:30pm 27.0 E 12 13 1014.2 - - - - 10 - - - -
30/10:20pm 27.0 E 12 14 1014.1 - - - - 10 - - - -
30/10:10pm 27.0 E 12 13 1014.1 - - - - 10 - - - -
30/10:00pm 27.1 E 11 14 1014.1 - - - - 10 - - - -
30/09:50pm 27.1 E 8 12 1014.1 - - - - 10 - - - -
30/09:40pm 27.1 E 8 11 1014.1 - - - - 10 - - - -
30/09:30pm 27.1 E 8 10 1013.9 - - - - 10 - - - -
30/09:20pm 27.1 ENE 12 14 1013.9 - - - - 10 - - - -
30/09:10pm 27.1 ENE 12 15 1013.8 - - - - 10 - - - -
30/09:00pm 27.1 ENE 11 15 1013.7 - - - - 10 - - - -
30/08:50pm 27.1 E 9 12 1013.6 - - - - 10 - - - -
30/08:40pm 27.1 E 10 13 1013.5 - - - Partly cloudy 10 - - - -
30/08:30pm 27.1 E 8 11 1013.5 - - - Partly cloudy 10 - - - -
30/08:20pm 27.1 E 9 12 1013.4 - - - Partly cloudy 10 - - - -
30/08:10pm 27.2 E 11 12 1013.3 - - - - 10 - - - -
30/08:00pm 27.2 E 11 14 1013.0 - - - - 10 - - - -
30/07:50pm 27.3 E 12 13 1013.0 - - - Partly cloudy 10 - - - -
30/07:40pm 27.3 E 10 14 1013.0 - - - Partly cloudy 10 - - - -
30/07:30pm 27.2 E 9 9 1013.0 - - - Partly cloudy 10 - - - -
30/07:20pm 27.3 E 10 10 1012.8 - - - Partly cloudy 10 - - - -
30/07:10pm 27.4 E 9 10 1012.7 - - - Partly cloudy 10 - - - -
30/07:00pm 27.3 E 7 8 1012.5 - - - Partly cloudy 10 - - - -
30/06:50pm 27.4 E 8 11 1012.4 - - - Partly cloudy 10 - - - -
30/06:40pm 27.8 E 10 11 1012.4 - - - Partly cloudy 10 - - - -
30/06:30pm 28.3 E 11 11 1012.3 - - - Partly cloudy 10 - - - -
30/06:20pm 28.3 E 11 11 1012.2 - - - Partly cloudy 10 - - - -
30/06:10pm 28.0 E 11 13 1012.0 - - - Partly cloudy 10 - - - -
30/06:00pm 28.6 E 13 14 1012.0 - - - Partly cloudy 10 - - - -
30/05:50pm 28.5 E 12 13 1011.9 - - - Partly cloudy 10 - - - -
30/05:40pm 28.5 E 9 13 1011.9 - - - Partly cloudy 10 - - - -
30/05:30pm 28.5 E 10 10 1011.8 - - - Partly cloudy 10 - - - -
30/05:20pm 28.8 E 11 12 1011.9 - - - - 10 - - - -
30/05:10pm 29.3 E 11 12 1011.7 - - - - 10 - - - -
30/05:00pm 29.2 E 10 13 1011.6 - - - - 10 - - - -
30/04:50pm 28.7 E 10 12 1011.6 - - - - 10 - - - -
30/04:40pm 28.8 E 10 12 1011.6 - - - - 10 - - - -
30/04:30pm 28.8 E 9 12 1011.6 - - - - 10 - - - -
30/04:20pm 29.1 E 9 10 1011.6 - - - Partly cloudy 10 - - - -
30/04:10pm 28.8 E 8 10 1011.7 - - - Partly cloudy 10 - - - -
30/04:00pm 29.0 E 8 9 1011.7 - - - Partly cloudy 10 - - - -
30/03:50pm 30.0 E 8 8 1011.8 - - - Partly cloudy 10 - - - -
30/03:40pm 28.9 E 7 9 1011.8 - - - Partly cloudy 10 - - - -
30/03:30pm 28.4 E 6 10 1011.9 - - - Partly cloudy 10 - - - -
30/03:20pm 28.4 E 6 8 1012.1 - - - Partly cloudy 10 - - - -
30/03:10pm 29.4 E 8 8 1012.2 - - - Partly cloudy 10 - - - -
30/03:00pm 28.9 E 8 8 1012.2 - - - Partly cloudy 10 - - - -
30/02:50pm 28.5 E 8 10 1012.4 - - - Partly cloudy 10 - - - -
30/02:40pm 28.0 E 7 10 1012.5 - - - Partly cloudy 10 - - - -
30/02:30pm 28.4 E 9 10 1012.6 - - - - 10 - - - -
30/02:20pm 28.2 E 8 10 1012.6 - - - Partly cloudy 10 - - - -
30/02:10pm 28.8 E 10 11 1012.6 - - - Partly cloudy 10 - - - -
30/02:00pm 28.1 ENE 8 10 1012.7 - - - Partly cloudy 10 - - - -
30/01:50pm 27.9 ENE 8 11 1012.9 - - - Partly cloudy 10 - - - -
30/01:40pm 28.0 E 9 10 1013.1 - - - Partly cloudy 10 - - - -
30/01:30pm 28.5 E 9 11 1013.4 - - - Partly cloudy 10 - - - -
30/01:20pm 27.9 E 9 9 1013.5 - - - Partly cloudy 10 - - - -
30/01:10pm 27.9 E 9 9 1013.6 - - - Partly cloudy 10 - - - -
30/01:00pm 28.2 ENE 9 12 1013.7 - - - Partly cloudy 10 - - - -
30/12:50pm 28.0 ENE 10 11 1013.7 - - - Partly cloudy 10 - - - -
30/12:40pm 27.7 ENE 8 11 1013.9 - - - Partly cloudy 10 - - - -
30/12:30pm 28.1 ENE 11 13 1014.2 - - - Partly cloudy 10 - - - -
30/12:20pm 28.5 ENE 12 12 1014.4 - - - Partly cloudy 10 - - - -
30/12:10pm 28.1 ENE 10 12 1014.5 - - - Partly cloudy 10 - - - -
30/12:00pm 29.0 E 10 11 1014.7 - - - Partly cloudy 10 - - - -
30/11:50am 29.0 ENE 10 11 1014.8 - - - - 10 - - - -
30/11:40am 28.9 ENE 10 12 1015.0 - - - Partly cloudy 10 - - - -
30/11:30am 29.7 ENE 10 11 1015.1 - - - Partly cloudy 10 - - - -
30/11:20am 29.6 ENE 10 11 1015.2 - - - Partly cloudy 10 - - - -
30/11:10am 29.2 ENE 9 10 1015.3 - - - Partly cloudy 10 - - - -
30/11:00am 29.8 ENE 10 13 1015.4 - - - - 10 - - - -
30/10:50am 29.2 ENE 10 11 1015.5 - - - - 10 - - - -
30/10:40am 29.3 ENE 10 11 1015.6 - - - - 10 - - - -
30/10:30am 28.5 ENE 9 9 1015.7 - - - - 10 - - - -
30/10:20am 29.3 ENE 10 10 1015.7 - - - - 10 - - - -
30/10:10am 29.4 ENE 9 11 1015.6 - - - Partly cloudy 10 - - - -
30/10:00am 29.2 ENE 9 9 1015.6 - - - Partly cloudy 10 - - - -
30/09:50am 28.2 ENE 10 11 1015.6 - - - Partly cloudy 10 - - - -
30/09:40am 27.4 ENE 9 10 1015.5 - - - Partly cloudy 10 - - - -
30/09:30am 27.5 ENE 10 10 1015.4 - - - Partly cloudy 10 - - - -
30/09:20am 27.3 ENE 9 12 1015.3 - - - Partly cloudy 10 - - - -
30/09:10am 27.5 ENE 11 10 1015.2 - - - - 10 - - - -
30/09:00am 27.7 ENE 12 13 1015.0 - - - Partly cloudy 10 - - - -
30/08:50am 27.6 ENE 12 13 1014.9 - - - - 10 - - - -
30/08:40am 27.1 ENE 9 12 1014.8 - - - Partly cloudy 10 - - - -
30/08:30am 26.8 ENE 10 12 1014.6 - - - Partly cloudy 4 - - - -
30/08:20am 26.8 ENE 10 12 1014.6 - - - Partly cloudy 4 - - - -
30/08:10am 26.9 ENE 9 12 1014.6 - - - Partly cloudy 4 - - - -
30/08:00am 26.8 ENE 10 11 1014.7 - - - Partly cloudy 10 - - - -
30/07:50am 26.6 ENE 11 11 1014.6 - - - Partly cloudy 10 - - - -
30/07:40am 26.6 ENE 11 11 1014.6 - - - Partly cloudy 10 - - - -
30/07:30am 26.4 ENE 11 14 1014.5 - - - Partly cloudy 10 - - - -
30/07:20am 26.4 ENE 11 13 1014.3 - - - Partly cloudy 10 - - - -
30/07:10am 26.4 ENE 12 12 1014.2 - - - Partly cloudy 10 - - - -
30/07:00am 26.4 ENE 11 12 1014.1 - - - Partly cloudy 10 - - - -
30/06:50am 26.4 ENE 12 12 1014.0 - - - Partly cloudy 10 - - - -
30/06:40am 26.4 ENE 12 12 1014.0 - - - Partly cloudy 10 - - - -
30/06:30am 26.4 ENE 12 12 1013.8 - - - - 10 - - - -
30/06:20am 26.4 ENE 14 15 1013.6 - - - - 10 - - - -
30/06:10am 26.3 ENE 13 15 1013.3 - - - - 10 - - - -
30/06:00am 26.5 NE 14 15 1013.3 - - - - 10 - - - -
30/05:50am 26.4 ENE 13 14 1013.2 - - - - 10 - - - -
30/05:40am 26.3 ENE 12 13 1013.1 - - - - 10 - - - -
30/05:30am 26.4 ENE 13 15 1012.9 - - - - 10 - - - -
30/05:20am 26.5 ENE 15 16 1012.7 - - - - 10 - - - -
30/05:10am 26.5 NE 15 18 1012.6 - - - - 10 - - - -
30/05:00am 26.5 NE 14 16 1012.6 - - - - 10 - - - -
30/04:50am 26.4 NE 15 17 1012.5 - - - - 10 - - - -
30/04:40am 26.5 NE 13 16 1012.5 - - - - 10 - - - -
30/04:30am 26.4 NE 13 13 1012.5 - - - - 10 - - - -
30/04:20am 26.4 NE 13 13 1012.5 - - - - 10 - - - -
30/04:10am 26.4 NE 11 13 1012.5 - - - - 10 - - - -
30/04:00am 26.5 ENE 13 14 1012.5 - - - - 10 - - - -
30/03:50am 26.5 ENE 12 12 1012.6 - - - - 10 - - - -
30/03:40am 26.5 ENE 13 13 1012.6 - - - - 10 - - - -
30/03:30am 26.5 ENE 14 15 1012.5 - - - - 10 - - - -
30/03:20am 26.5 ENE 14 16 1012.4 - - - - 10 - - - -
30/03:10am 26.5 ENE 13 14 1012.6 - - - - 10 - - - -
30/03:00am 26.5 ENE 13 13 1012.8 - - - - 10 - - - -
30/02:50am 26.5 ENE 13 14 1013.0 - - - - 10 - - - -
30/02:40am 26.6 ENE 13 14 1013.0 - - - - 10 - - - -
30/02:30am 26.6 ENE 14 14 1013.1 - - - - 10 - - - -
30/02:20am 26.7 ENE 14 15 1013.2 - - - Partly cloudy 10 - - - -
30/02:10am 26.6 ENE 14 16 1013.4 - - - Partly cloudy 10 - - - -
30/02:00am 26.6 ENE 14 14 1013.5 - - - Partly cloudy 10 - - - -
30/01:50am 26.6 ENE 15 15 1013.6 - - - - 10 - - - -
30/01:40am 26.6 ENE 15 15 1013.7 - - - Partly cloudy 10 - - - -
30/01:30am 26.7 ENE 15 16 1013.7 - - - Partly cloudy 10 - - - -
30/01:20am 26.8 ENE 15 16 1013.8 - - - Partly cloudy 10 - - - -
30/01:10am 26.7 E 15 16 1013.9 - - - Partly cloudy 10 - - - -
30/01:00am 26.8 ENE 14 16 1014.1 - - - Partly cloudy 10 - - - -
30/12:50am 26.8 E 13 14 1014.3 - - - Cloudy 10 - - - -
30/12:40am 26.8 E 12 14 1014.3 - - - Partly cloudy 10 - - - -
30/12:30am 26.7 E 10 13 1014.3 - - - Partly cloudy 10 - - - -
30/12:20am 26.8 E 14 14 1014.2 - - - - 10 - - - -
30/12:10am 26.8 E 13 15 1014.2 - - - - 10 - - - -
30/12:00am 26.8 E 12 14 1014.4 - - - - 10 - - - -
 
Date/Time
CST
Temp
°C
Wind Pressure Rain since
9am
mm
Weather Cloud Vis
km
Sea
Height
m
Swell
Dir  Spd
kts
Gust
kts
hPa Trend Height
m
Period
s
Dir
29/11:50pm 26.8 E 12 14 1014.4 - - - - 10 - - - -
29/11:40pm 26.8 E 12 12 1014.4 - - - - 10 - - - -
29/11:30pm 26.8 E 13 15 1014.3 - - - - 10 - - - -
29/11:20pm 27.0 E 13 14 1014.4 - - - - 10 - - - -
29/11:10pm 26.9 E 12 14 1014.3 - - - - 10 - - - -
29/11:00pm 26.8 E 12 13 1014.2 - - - - 10 - - - -
29/10:50pm 26.8 E 12 14 1014.1 - - - - 10 - - - -
29/10:40pm 26.9 E 13 12 1014.0 - - - - 10 - - - -
29/10:30pm 26.8 E 14 14 1013.9 - - - - 10 - - - -
29/10:20pm 27.0 ESE 14 15 1013.9 - - - - 10 - - - -
29/10:10pm 26.9 E 15 16 1013.7 - - - - 10 - - - -
29/10:00pm 26.9 E 15 16 1013.6 - - - - 10 - - - -
29/09:50pm 27.0 E 16 16 1013.6 - - - - 10 - - - -
29/09:40pm 27.0 E 16 19 1013.4 - - - - 10 - - - -
29/09:30pm 27.0 E 15 18 1013.3 - - - - 10 - - - -
29/09:20pm 27.0 E 17 17 1013.2 - - - Partly cloudy 10 - - - -
29/09:10pm 27.0 E 15 16 1013.1 - - - Partly cloudy 10 - - - -
29/09:00pm 26.9 E 12 17 1013.0 - - - Partly cloudy 10 - - - -
29/08:50pm 26.9 E 14 15 1013.0 - - - - 10 - - - -
29/08:40pm 27.0 E 15 17 1012.8 - - - - 10 - - - -
29/08:30pm 27.2 E 16 16 1012.7 - - - - 10 - - - -
29/08:20pm 26.9 E 11 16 1012.6 - - - - 10 - - - -
29/08:10pm 26.7 E 11 13 1012.5 - - - - 10 - - - -
29/08:00pm 26.8 E 13 13 1012.4 - - - - 10 - - - -
29/07:50pm 27.1 E 14 19 1012.2 - - - Partly cloudy 10 - - - -
29/07:40pm 27.0 E 14 16 1012.1 - - - Partly cloudy 10 - - - -
29/07:30pm 26.9 E 12 16 1012.2 - - - Partly cloudy 10 - - - -
29/07:20pm 26.9 E 10 14 1012.1 - - - Partly cloudy 10 - - - -
29/07:10pm 27.0 E 13 15 1012.0 - - - Partly cloudy 10 - - - -
29/07:00pm 27.0 E 10 11 1011.9 - - - - 10 - - - -
29/06:50pm 27.0 E 11 13 1011.7 - - - - 10 - - - -
29/06:40pm 27.1 ENE 11 14 1011.6 - - - - 10 - - - -
29/06:30pm 27.2 ENE 14 16 1011.5 - - - Partly cloudy 10 - - - -
29/06:20pm 27.3 ENE 12 15 1011.5 - - - Partly cloudy 10 - - - -
29/06:10pm 27.6 E 10 9 1011.5 - - - Partly cloudy 10 - - - -
29/06:00pm 27.8 E 10 13 1011.4 - - - Partly cloudy 10 - - - -
29/05:50pm 27.6 ENE 11 12 1011.4 - - - Partly cloudy 10 - - - -
29/05:40pm 27.7 ENE 9 11 1011.3 - - - - 10 - - - -
29/05:30pm 28.5 ENE 12 13 1011.3 - - - - 10 - - - -
29/05:20pm 27.9 ENE 9 13 1011.2 - - - - 10 - - - -
29/05:10pm 28.0 ENE 11 11 1011.0 - - - - 10 - - - -
29/05:00pm 28.0 ENE 7 13 1011.0 - - - - 10 - - - -
29/04:50pm 28.2 ENE 10 10 1010.9 - - - Partly cloudy 10 - - - -
29/04:40pm 29.6 ENE 11 12 1011.1 - - - Partly cloudy 10 - - - -
29/04:30pm 30.0 ENE 11 13 1011.2 - - - Partly cloudy 10 - - - -
29/04:20pm 29.6 ENE 11 12 1011.1 - - - Partly cloudy 10 - - - -
29/04:10pm 29.2 ENE 12 13 1011.1 - - - Partly cloudy 10 - - - -
29/04:00pm 28.6 ENE 12 14 1010.9 - - - Partly cloudy 10 - - - -
29/03:50pm 28.5 ENE 11 13 1010.9 - - - - 10 - - - -
29/03:40pm 29.3 ENE 12 13 1010.9 - - - Partly cloudy 10 - - - -
29/03:30pm 29.4 ENE 13 13 1010.9 - - - Partly cloudy 10 - - - -
29/03:20pm 29.2 ENE 13 13 1011.0 - - - Partly cloudy 10 - - - -
29/03:10pm 29.1 ENE 13 14 1011.1 - - - - 10 - - - -
29/03:00pm 29.4 ENE 13 14 1011.1 - - - - 10 - - - -
29/02:50pm 29.3 ENE 13 14 1011.2 - - - - 10 - - - -
29/02:40pm 29.0 ENE 13 14 1011.3 - - - Partly cloudy 10 - - - -
29/02:30pm 28.5 ENE 13 14 1011.4 - - - Partly cloudy 10 - - - -
29/02:20pm 28.5 ENE 13 14 1011.4 - - - Partly cloudy 10 - - - -
29/02:10pm 28.1 NE 12 15 1011.5 - - - Partly cloudy 10 - - - -
29/02:00pm 27.6 NE 9 11 1011.5 - - - Partly cloudy 10 - - - -
29/01:50pm 27.6 NE 9 14 1011.7 - - - Partly cloudy 10 - - - -
29/01:40pm 27.4 NE 9 15 1011.9 - - - - 10 - - - -
29/01:30pm 27.6 ENE 9 13 1011.9 - - - - 10 - - - -
29/01:20pm 27.4 NE 11 12 1011.9 - - - - 10 - - - -
29/01:10pm 27.3 NE 11 15 1012.0 - - - - 10 - - - -
29/01:00pm 27.3 NE 12 15 1012.2 - - - Partly cloudy 10 - - - -
29/12:50pm 27.3 NE 11 12 1012.4 - - - Partly cloudy 10 - - - -
29/12:40pm 27.5 NE 11 13 1012.6 - - - Partly cloudy 10 - - - -
29/12:30pm 27.3 NE 12 13 1012.9 - - - Partly cloudy 10 - - - -
29/12:20pm 27.3 NE 11 14 1013.1 - - - Partly cloudy 10 - - - -
29/12:10pm 27.4 NE 10 12 1013.2 - - - Partly cloudy 10 - - - -
29/12:00pm 27.2 NE 9 12 1013.3 - - - Partly cloudy 10 - - - -
29/11:50am 27.3 NE 9 13 1013.5 - - - - 10 - - - -
29/11:40am 27.4 NE 7 7 1013.6 - - - Partly cloudy 10 - - - -
29/11:30am 27.4 ENE 8 8 1013.7 - - - Partly cloudy 10 - - - -
29/11:20am 27.4 NE 8 13 1013.8 - - - Partly cloudy 10 - - - -
29/11:10am 27.3 NE 8 11 1013.9 - - - Partly cloudy 10 - - - -
29/11:00am 27.2 NE 8 10 1013.9 - - - Partly cloudy 10 - - - -
29/10:50am 27.1 NE 8 11 1014.0 - - - Partly cloudy 10 - - - -
29/10:40am 27.2 NE 8 10 1014.1 - - - Partly cloudy 10 - - - -
29/10:30am 27.4 NE 8 10 1014.2 - - - Partly cloudy 10 - - - -
29/10:20am 27.8 NE 11 12 1014.3 - - - - 10 - - - -
29/10:10am 28.3 NE 12 12 1014.1 - - - Partly cloudy 10 - - - -
29/10:00am 28.3 NE 13 13 1014.0 - - - Partly cloudy 10 - - - -
29/09:50am 28.2 NE 13 15 1013.9 - - - Partly cloudy 10 - - - -
29/09:40am 27.0 NE 10 13 1013.9 - - - Partly cloudy 10 - - - -
29/09:30am 27.4 NE 9 11 1013.9 - - - Partly cloudy 10 - - - -
29/09:20am 27.2 NE 10 11 1013.8 - - - Partly cloudy 10 - - - -
29/09:10am 27.2 NE 8 11 1013.7 - - - Partly cloudy 10 - - - -
29/09:00am 26.9 NE 9 10 1013.7 - - - Partly cloudy 10 - - - -
29/08:50am 27.1 NE 9 11 1013.6 - - - Partly cloudy 10 - - - -
29/08:40am 27.3 NE 10 10 1013.6 - - - Partly cloudy 10 - - - -
29/08:30am 26.8 NNE 8 10 1013.6 - - - Partly cloudy 10 - - - -
29/08:20am 26.7 NNE 9 12 1013.6 - - - Partly cloudy 10 - - - -
29/08:10am 26.6 NNE 11 13 1013.6 - - - Partly cloudy 10 - - - -
29/08:00am 26.5 NNE 10 13 1013.5 - - - Partly cloudy 10 - - - -
29/07:50am 26.4 NNE 9 11 1013.4 - - - Partly cloudy 10 - - - -
29/07:40am 26.4 NNE 11 14 1013.2 - - - Partly cloudy 10 - - - -
29/07:30am 26.5 NNE 10 12 1013.1 - - - Partly cloudy 10 - - - -
29/07:20am 26.4 NNE 9 13 1013.1 - - - Partly cloudy 10 - - - -
29/07:10am 26.3 NNE 9 10 1013.0 - - - Partly cloudy 10 - - - -
29/07:00am 26.4 NNE 10 12 1013.0 - - - Partly cloudy 10 - - - -
29/06:50am 26.4 NNE 11 12 1012.7 - - - - 10 - - - -
29/06:40am 26.3 NNE 11 13 1012.5 - - - - 10 - - - -
29/06:30am 26.4 NNE 11 12 1012.4 - - - - 10 - - - -
29/06:20am 26.3 NNE 10 13 1012.3 - - - - 10 - - - -
29/06:10am 26.4 NNE 10 13 1012.2 - - - - 10 - - - -
29/06:00am 26.4 NNE 11 12 1012.1 - - - - 10 - - - -
29/05:50am 26.4 NNE 11 12 1012.0 - - - - 10 - - - -
29/05:40am 26.5 NNE 10 12 1011.9 - - - - 10 - - - -
29/05:30am 26.5 NE 8 12 1011.8 - - - - 10 - - - -
29/05:20am 26.4 NE 8 11 1011.7 - - - - 10 - - - -
29/05:10am 26.4 NE 8 10 1011.7 - - - Partly cloudy 10 - - - -
29/05:00am 26.5 NE 8 12 1011.7 - - - Partly cloudy 10 - - - -
29/04:50am 26.4 NE 9 12 1011.7 - - - Partly cloudy 10 - - - -
29/04:40am 26.5 NE 8 10 1011.9 - - - Partly cloudy 10 - - - -
29/04:30am 26.5 NE 9 12 1011.9 - - - Partly cloudy 10 - - - -
29/04:20am 26.5 NE 9 14 1011.9 - - - Partly cloudy 10 - - - -
29/04:10am 26.4 NE 8 10 1011.9 - - - Partly cloudy 10 - - - -
29/04:00am 26.5 NE 9 11 1011.9 - - - Partly cloudy 10 - - - -
29/03:50am 26.5 NE 10 9 1012.0 - - - Partly cloudy 10 - - - -
29/03:40am 26.6 NE 10 11 1012.1 - - - Partly cloudy 10 - - - -
29/03:30am 26.6 ENE 11 12 1012.2 - - - Partly cloudy 10 - - - -
29/03:20am 26.7 ENE 12 15 1012.2 - - - Partly cloudy 10 - - - -
29/03:10am 26.7 ENE 13 14 1012.1 - - - Partly cloudy 10 - - - -
29/03:00am 26.6 ENE 12 13 1012.2 - - - Partly cloudy 10 - - - -
29/02:50am 26.7 ENE 12 13 1012.3 - - - Partly cloudy 10 - - - -
29/02:40am 26.7 ENE 12 13 1012.4 - - - Partly cloudy 10 - - - -
29/02:30am 26.8 ENE 12 13 1012.5 - - - Partly cloudy 10 - - - -
29/02:20am 26.7 ENE 12 11 1012.6 - - - Partly cloudy 10 - - - -
29/02:10am 26.8 ENE 12 13 1012.7 - - - Partly cloudy 10 - - - -
29/02:00am 26.7 ENE 12 12 1012.8 - - - - 10 - - - -
29/01:50am 26.9 ENE 13 13 1012.8 - - - Partly cloudy 10 - - - -
29/01:40am 26.8 ENE 13 13 1013.0 - - - Partly cloudy 10 - - - -

Other Formats:

Comma delimited format used in spreadsheet applications
http://www.bom.gov.au/fwo/IDD60701/IDD60701.95100.axf

JavaScript Object Notation format (JSON) in row-major order
http://www.bom.gov.au/fwo/IDD60701/IDD60701.95100.json